| time (UTC) | temp F | wind direction | speed MPH | gust MPH | rain 1hr in | rain 24hr in | rain mn in | humidity % | barometer mb |
| 20260507124555 | 66 | 207 | 0.0 | 2.0 | 0.00 | 0.00 | 0.00 | 60 | 1010.7 |
| 20260507124055 | 66 | 207 | 4.0 | 7.0 | 0.00 | 0.00 | 0.00 | 60 | 1010.2 |
| 20260507123555 | 66 | 240 | 4.0 | 5.0 | 0.00 | 0.00 | 0.00 | 60 | 1010.2 |
| 20260507123055 | 66 | 267 | 2.0 | 4.0 | 0.00 | 0.00 | 0.00 | 60 | 1010.2 |
| 20260507122555 | 66 | 267 | 3.0 | 7.0 | 0.00 | 0.00 | 0.00 | 60 | 1010.2 |
| 20260507122055 | 66 | 252 | 6.0 | 7.0 | 0.00 | 0.00 | 0.00 | 60 | 1010.0 |
| 20260507121555 | 66 | 315 | 1.0 | 2.0 | 0.00 | 0.00 | 0.00 | 60 | 1010.1 |
| 20260507121055 | 66 | 315 | 4.0 | 5.0 | 0.00 | 0.00 | 0.00 | 60 | 1010.1 |
| 20260507120555 | 66 | 289 | 9.0 | 11.0 | 0.00 | 0.00 | 0.00 | 60 | 1010.3 |
| 20260507120055 | 66 | 289 | 3.0 | 7.0 | 0.00 | 0.00 | 0.00 | 60 | 1010.2 |
| 20260507115555 | 66 | 276 | 11.0 | 13.0 | 0.00 | 0.00 | 0.00 | 59 | 1010.2 |
| 20260507115055 | 66 | 268 | 5.0 | 5.0 | 0.00 | 0.00 | 0.00 | 59 | 1010.0 |
| 20260507114555 | 66 | 260 | 4.0 | 11.0 | 0.00 | 0.00 | 0.00 | 60 | 1010.0 |
| 20260507114055 | 66 | 241 | 7.0 | 7.0 | 0.00 | 0.00 | 0.00 | 61 | 1010.2 |
| 20260507113555 | 66 | 282 | 0.0 | 5.0 | 0.00 | 0.00 | 0.00 | 61 | 1010.1 |
| 20260507113055 | 66 | 320 | 5.0 | 11.0 | 0.00 | 0.00 | 0.00 | 62 | 1010.1 |
| 20260507112555 | 64 | 286 | 7.0 | 9.0 | 0.00 | 0.00 | 0.00 | 62 | 1010.2 |
| 20260507112055 | 64 | 263 | 9.0 | 11.0 | 0.00 | 0.00 | 0.00 | 63 | 1010.4 |
| 20260507111555 | 64 | 241 | 5.0 | 7.0 | 0.00 | 0.00 | 0.00 | 64 | 1010.5 |
| 20260507111055 | 64 | 273 | 5.0 | 11.0 | 0.00 | 0.00 | 0.00 | 64 | 1010.4 |
| 20260507110555 | 64 | 235 | 7.0 | 9.0 | 0.00 | 0.00 | 0.00 | 65 | 1010.3 |
| 20260507110055 | 64 | 260 | 4.0 | 7.0 | 0.00 | 0.00 | 0.00 | 65 | 1010.5 |
| 20260507105555 | 64 | 248 | 6.0 | 9.0 | 0.00 | 0.00 | 0.00 | 65 | 1010.2 |
| 20260507105055 | 64 | 246 | 5.0 | 7.0 | 0.00 | 0.00 | 0.00 | 65 | 1010.4 |
| 20260507104555 | 64 | 218 | 0.0 | 9.0 | 0.00 | 0.00 | 0.00 | 64 | 1010.2 |
| 20260507104055 | 64 | 259 | 6.0 | 11.0 | 0.00 | 0.00 | 0.00 | 65 | 1010.4 |
| 20260507103555 | 64 | 271 | 7.0 | 9.0 | 0.00 | 0.00 | 0.00 | 67 | 1010.4 |
| 20260507103055 | 64 | 266 | 11.0 | 17.0 | 0.00 | 0.00 | 0.00 | 66 | 1010.4 |
| 20260507102555 | 64 | 274 | 7.0 | 11.0 | 0.00 | 0.00 | 0.00 | 66 | 1010.3 |
| 20260507102055 | 64 | 225 | 12.0 | 18.0 | 0.00 | 0.00 | 0.00 | 65 | 1010.1 |
| 20260507101555 | 64 | 233 | 7.0 | 15.0 | 0.00 | 0.00 | 0.00 | 65 | 1010.0 |
| 20260507101055 | 64 | 215 | 10.0 | 13.0 | 0.00 | 0.00 | 0.00 | 64 | 1010.1 |
| 20260507100555 | 64 | 276 | 8.0 | 9.0 | 0.00 | 0.00 | 0.00 | 64 | 1010.0 |
| 20260507100055 | 64 | 206 | 9.0 | 17.0 | 0.00 | 0.00 | 0.00 | 66 | 1010.1 |
| 20260507095555 | 64 | 227 | 11.0 | 17.0 | 0.00 | 0.00 | 0.00 | 66 | 1010.0 |
| 20260507095055 | 64 | 263 | 9.0 | 17.0 | 0.00 | 0.00 | 0.00 | 66 | 1010.0 |
| 20260507094555 | 64 | 239 | 8.0 | 13.0 | 0.00 | 0.00 | 0.00 | 64 | 1009.7 |
| 20260507094055 | 64 | 262 | 9.0 | 15.0 | 0.00 | 0.00 | 0.00 | 68 | 1010.0 |
| 20260507093555 | 64 | 231 | 8.0 | 22.0 | 0.00 | 0.00 | 0.00 | 69 | 1010.1 |
| 20260507093055 | 63 | 272 | 10.0 | 17.0 | 0.00 | 0.00 | 0.00 | 70 | 1009.9 |
| 20260507092555 | 63 | 286 | 10.0 | 15.0 | 0.00 | 0.00 | 0.00 | 71 | 1009.8 |
| 20260507092055 | 63 | 273 | 14.0 | 18.0 | 0.00 | 0.00 | 0.00 | 71 | 1009.9 |
| 20260507091555 | 63 | 206 | 9.0 | 20.0 | 0.00 | 0.00 | 0.00 | 72 | 1009.7 |
| 20260507091055 | 63 | 283 | 16.0 | 20.0 | 0.00 | 0.00 | 0.00 | 71 | 1009.7 |
| 20260507090555 | 63 | 264 | 6.0 | 11.0 | 0.00 | 0.00 | 0.00 | 72 | 1009.6 |
| 20260507090055 | 63 | 246 | 11.0 | 13.0 | 0.00 | 0.00 | 0.00 | 72 | 1009.5 |
| 20260507085555 | 63 | 237 | 12.0 | 22.0 | 0.00 | 0.00 | 0.00 | 71 | 1009.4 |
| 20260507085059 | 63 | 271 | 13.0 | 17.0 | 0.00 | 0.00 | 0.00 | 72 | 1009.3 |
| 20260507084559 | 63 | 280 | 12.0 | 17.0 | 0.00 | 0.00 | 0.00 | 72 | 1009.4 |
| 20260507084059 | 63 | 226 | 10.0 | 20.0 | 0.00 | 0.00 | 0.00 | 73 | 1009.3 |
| 20260507083559 | 63 | 232 | 9.0 | 15.0 | 0.00 | 0.00 | 0.00 | 73 | 1009.2 |
| 20260507083059 | 63 | 298 | 8.0 | 17.0 | 0.00 | 0.00 | 0.00 | 73 | 1009.2 |
| 20260507082559 | 63 | 232 | 9.0 | 17.0 | 0.00 | 0.00 | 0.00 | 73 | 1009.2 |
| 20260507082059 | 63 | 270 | 6.0 | 15.0 | 0.00 | 0.00 | 0.00 | 73 | 1009.2 |
| 20260507081559 | 63 | 248 | 8.0 | 18.0 | 0.00 | 0.00 | 0.00 | 73 | 1008.9 |
| 20260507081059 | 63 | 221 | 12.0 | 22.0 | 0.00 | 0.00 | 0.00 | 73 | 1009.0 |
| 20260507080559 | 63 | 259 | 4.0 | 22.0 | 0.00 | 0.00 | 0.00 | 73 | 1009.0 |
| 20260507080059 | 63 | 230 | 10.0 | 20.0 | 0.00 | 0.00 | 0.00 | 72 | 1008.8 |
| 20260507075559 | 63 | 208 | 11.0 | 20.0 | 0.00 | 0.00 | 0.00 | 71 | 1008.8 |
| 20260507075059 | 63 | 236 | 10.0 | 20.0 | 0.00 | 0.00 | 0.00 | 72 | 1008.5 |
| 20260507074559 | 63 | 230 | 12.0 | 22.0 | 0.00 | 0.00 | 0.00 | 72 | 1008.5 |
| 20260507074059 | 63 | 141 | 14.0 | 28.0 | 0.00 | 0.00 | 0.00 | 72 | 1008.8 |
| 20260507073559 | 63 | 233 | 8.0 | 15.0 | 0.00 | 0.00 | 0.00 | 72 | 1008.6 |
| 20260507073059 | 61 | 230 | 9.0 | 13.0 | 0.00 | 0.00 | 0.00 | 72 | 1008.5 |
| 20260507072559 | 61 | 236 | 11.0 | 22.0 | 0.00 | 0.00 | 0.00 | 74 | 1008.5 |
| 20260507072059 | 61 | 215 | 21.0 | 26.0 | 0.00 | 0.00 | 0.00 | 73 | 1008.6 |
| 20260507071559 | 61 | 231 | 17.0 | 22.0 | 0.00 | 0.00 | 0.00 | 73 | 1008.5 |
| 20260507071059 | 61 | 250 | 8.0 | 18.0 | 0.00 | 0.00 | 0.00 | 74 | 1008.5 |
| 20260507070559 | 61 | 219 | 10.0 | 18.0 | 0.00 | 0.00 | 0.00 | 74 | 1008.6 |
| 20260507070059 | 61 | 236 | 9.0 | 13.0 | 0.00 | 0.00 | 0.00 | 74 | 1008.6 |
| 20260507065559 | 61 | 229 | 6.0 | 18.0 | 0.00 | 0.00 | 0.00 | 75 | 1008.7 |
| 20260507065059 | 59 | 205 | 6.0 | 17.0 | 0.00 | 0.00 | 0.00 | 75 | 1008.7 |
| 20260507064559 | 59 | 223 | 12.0 | 26.0 | 0.00 | 0.00 | 0.00 | 75 | 1008.6 |
| 20260507064059 | 59 | 204 | 10.0 | 18.0 | 0.00 | 0.00 | 0.00 | 75 | 1008.6 |
| 20260507063559 | 61 | 220 | 8.0 | 13.0 | 0.00 | 0.00 | 0.00 | 75 | 1008.5 |
| 20260507063059 | 61 | 224 | 12.0 | 18.0 | 0.00 | 0.00 | 0.00 | 74 | 1008.4 |
| 20260507062559 | 61 | 232 | 8.0 | 15.0 | 0.00 | 0.00 | 0.00 | 74 | 1008.4 |
| 20260507062059 | 59 | 268 | 12.0 | 17.0 | 0.00 | 0.00 | 0.00 | 74 | 1008.5 |
| 20260507061559 | 59 | 263 | 6.0 | 11.0 | 0.00 | 0.00 | 0.00 | 75 | 1008.3 |
| 20260507061059 | 59 | 211 | 8.0 | 13.0 | 0.00 | 0.00 | 0.00 | 75 | 1008.4 |
| 20260507060559 | 59 | 244 | 3.0 | 4.0 | 0.00 | 0.00 | 0.00 | 74 | 1008.5 |
| 20260507060059 | 59 | 246 | 1.0 | 4.0 | 0.00 | 0.00 | 0.00 | 74 | 1008.1 |
| 20260507055559 | 59 | 246 | 2.0 | 4.0 | 0.00 | 0.00 | 0.00 | 73 | 1008.1 |
| 20260507055059 | 59 | 246 | 3.0 | 4.0 | 0.00 | 0.00 | 0.00 | 73 | 1008.1 |
| 20260507054559 | 59 | 240 | 4.0 | 5.0 | 0.00 | 0.00 | 0.00 | 73 | 1008.2 |
| 20260507054059 | 59 | 241 | 2.0 | 4.0 | 0.00 | 0.00 | 0.00 | 73 | 1008.0 |
| 20260507053559 | 59 | 254 | 4.0 | 4.0 | 0.00 | 0.00 | 0.00 | 73 | 1008.1 |
| 20260507053059 | 59 | 267 | 4.0 | 5.0 | 0.00 | 0.00 | 0.00 | 73 | 1008.3 |
| 20260507052559 | 59 | 229 | 1.0 | 4.0 | 0.00 | 0.00 | 0.00 | 73 | 1008.1 |
| 20260507052059 | 59 | 229 | 2.0 | 4.0 | 0.00 | 0.00 | 0.00 | 73 | 1007.9 |
| 20260507051559 | 59 | 229 | 3.0 | 4.0 | 0.00 | 0.00 | 0.00 | 73 | 1007.8 |
| 20260507051059 | 59 | 229 | 0.0 | 2.0 | 0.00 | 0.00 | 0.00 | 73 | 1008.0 |
| 20260507050559 | 59 | 229 | 1.0 | 2.0 | 0.00 | 0.00 | 0.00 | 73 | 1007.9 |
| 20260507050059 | 59 | 229 | 1.0 | 2.0 | 0.00 | 0.00 | 0.00 | 73 | 1007.8 |
| 20260507045559 | 59 | 229 | 0.0 | 0.0 | 0.00 | 0.00 | 0.00 | 73 | 1007.8 |
| 20260507045059 | 59 | 229 | 0.0 | 0.0 | 0.00 | 0.00 | 0.00 | 73 | 1007.7 |
| 20260507044559 | 59 | 229 | 0.0 | 2.0 | 0.00 | 0.00 | 0.00 | 73 | 1007.6 |
| 20260507044059 | 59 | 229 | 2.0 | 4.0 | 0.00 | 0.00 | 0.00 | 73 | 1007.6 |
| 20260507043559 | 59 | 229 | 2.0 | 4.0 | 0.00 | 0.00 | 0.00 | 73 | 1007.7 |
| 20260507043059 | 59 | 229 | 1.0 | 5.0 | 0.00 | 0.00 | 0.00 | 72 | 1007.6 |
| 20260507042559 | 59 | 229 | 2.0 | 4.0 | 0.00 | 0.00 | 0.00 | 71 | 1007.6 |
| 20260507042059 | 59 | 229 | 2.0 | 4.0 | 0.00 | 0.00 | 0.00 | 71 | 1007.3 |
| 20260507041559 | 59 | 229 | 0.0 | 0.0 | 0.00 | 0.00 | 0.00 | 71 | 1007.3 |
| 20260507041059 | 59 | 229 | 0.0 | 0.0 | 0.00 | 0.00 | 0.00 | 72 | 1007.5 |
| 20260507040059 | 59 | 229 | 0.0 | 0.0 | 0.00 | 0.00 | 0.00 | 72 | 1007.4 |
| 20260507035559 | 59 | 229 | 0.0 | 0.0 | 0.00 | 0.00 | 0.00 | 71 | 1007.1 |
| 20260507035059 | 59 | 229 | 0.0 | 0.0 | 0.00 | 0.00 | 0.00 | 71 | 1007.1 |
| 20260507034559 | 59 | 229 | 0.0 | 0.0 | 0.00 | 0.00 | 0.00 | 71 | 1007.2 |
| 20260507034059 | 59 | 229 | 2.0 | 5.0 | 0.00 | 0.00 | 0.00 | 71 | 1006.8 |
| 20260507033559 | 59 | 229 | 2.0 | 4.0 | 0.00 | 0.00 | 0.00 | 71 | 1006.9 |
| 20260507033059 | 59 | 229 | 2.0 | 4.0 | 0.00 | 0.00 | 0.00 | 71 | 1006.9 |
| 20260507032559 | 59 | 229 | 1.0 | 2.0 | 0.00 | 0.00 | 0.00 | 71 | 1006.6 |
| 20260507032059 | 59 | 229 | 0.0 | 2.0 | 0.00 | 0.00 | 0.00 | 71 | 1006.9 |
| 20260507031559 | 59 | 229 | 0.0 | 2.0 | 0.00 | 0.00 | 0.00 | 71 | 1006.6 |
| 20260507031059 | 59 | 229 | 0.0 | 0.0 | 0.00 | 0.00 | 0.00 | 71 | 1006.9 |
| 20260507030559 | 59 | 229 | 0.0 | 2.0 | 0.00 | 0.00 | 0.00 | 71 | 1006.8 |
| 20260507030059 | 59 | 229 | 0.0 | 2.0 | 0.00 | 0.00 | 0.00 | 71 | 1006.8 |
| 20260507025559 | 59 | 229 | 0.0 | 0.0 | 0.00 | 0.00 | 0.00 | 71 | 1006.9 |
| 20260507025059 | 59 | 229 | 0.0 | 2.0 | 0.00 | 0.00 | 0.00 | 71 | 1006.8 |
| 20260507024559 | 59 | 229 | 0.0 | 0.0 | 0.00 | 0.00 | 0.00 | 71 | 1006.9 |
| 20260507024059 | 59 | 229 | 0.0 | 2.0 | 0.00 | 0.00 | 0.00 | 71 | 1006.8 |
| 20260507023559 | 59 | 229 | 1.0 | 2.0 | 0.00 | 0.00 | 0.00 | 71 | 1006.7 |
| 20260507023059 | 59 | 229 | 0.0 | 0.0 | 0.00 | 0.00 | 0.00 | 71 | 1006.8 |
| 20260507022559 | 59 | 229 | 2.0 | 2.0 | 0.00 | 0.00 | 0.00 | 72 | 1006.6 |
| 20260507022059 | 57 | 229 | 2.0 | 2.0 | 0.00 | 0.00 | 0.00 | 73 | 1006.6 |
| 20260507021559 | 57 | 229 | 0.0 | 0.0 | 0.00 | 0.00 | 0.00 | 73 | 1006.6 |
| 20260507021059 | 59 | 229 | 0.0 | 0.0 | 0.00 | 0.00 | 0.00 | 72 | 1006.5 |
| 20260507020559 | 59 | 229 | 0.0 | 2.0 | 0.00 | 0.00 | 0.00 | 71 | 1006.4 |
| 20260507020059 | 59 | 229 | 0.0 | 0.0 | 0.00 | 0.00 | 0.00 | 70 | 1006.3 |
| 20260507015559 | 59 | 229 | 2.0 | 4.0 | 0.00 | 0.00 | 0.00 | 70 | 1006.5 |
| 20260507015059 | 59 | 229 | 3.0 | 5.0 | 0.00 | 0.00 | 0.00 | 69 | 1006.2 |
| 20260507014559 | 59 | 244 | 2.0 | 4.0 | 0.00 | 0.00 | 0.00 | 69 | 1006.5 |
| 20260507014059 | 61 | 243 | 4.0 | 5.0 | 0.00 | 0.00 | 0.00 | 69 | 1006.2 |
| 20260507013559 | 61 | 249 | 2.0 | 4.0 | 0.00 | 0.00 | 0.00 | 69 | 1006.4 |
| 20260507013059 | 61 | 239 | 2.0 | 4.0 | 0.00 | 0.00 | 0.00 | 69 | 1006.3 |
| 20260507012559 | 61 | 239 | 1.0 | 4.0 | 0.00 | 0.00 | 0.00 | 68 | 1006.2 |
| 20260507012059 | 61 | 239 | 2.0 | 4.0 | 0.00 | 0.00 | 0.00 | 68 | 1006.2 |
| 20260507011559 | 59 | 239 | 2.0 | 5.0 | 0.00 | 0.00 | 0.00 | 69 | 1006.1 |
| 20260507011059 | 59 | 237 | 4.0 | 5.0 | 0.00 | 0.00 | 0.00 | 69 | 1006.4 |
| 20260507010559 | 59 | 238 | 5.0 | 5.0 | 0.00 | 0.00 | 0.00 | 70 | 1006.3 |
| 20260507010059 | 59 | 332 | 1.0 | 4.0 | 0.00 | 0.00 | 0.00 | 70 | 1006.4 |
| 20260507005559 | 59 | 332 | 0.0 | 0.0 | 0.00 | 0.00 | 0.00 | 69 | 1006.3 |
| 20260507005059 | 61 | 332 | 0.0 | 2.0 | 0.00 | 0.00 | 0.00 | 68 | 1006.3 |
| 20260507004559 | 61 | 332 | 1.0 | 4.0 | 0.00 | 0.00 | 0.00 | 68 | 1005.9 |
| 20260507004059 | 59 | 332 | 0.0 | 4.0 | 0.00 | 0.00 | 0.00 | 69 | 1006.1 |
| 20260507003559 | 59 | 332 | 1.0 | 2.0 | 0.00 | 0.00 | 0.00 | 69 | 1006.3 |
| 20260507003059 | 59 | 332 | 0.0 | 2.0 | 0.00 | 0.00 | 0.00 | 69 | 1006.3 |
| 20260507002559 | 59 | 332 | 1.0 | 2.0 | 0.00 | 0.00 | 0.00 | 69 | 1006.2 |
| 20260507002059 | 59 | 332 | 1.0 | 4.0 | 0.00 | 0.00 | 0.00 | 69 | 1006.3 |
| 20260507001559 | 59 | 284 | 0.0 | 2.0 | 0.00 | 0.00 | 0.00 | 69 | 1006.4 |
| 20260507001059 | 59 | 284 | 3.0 | 4.0 | 0.00 | 0.00 | 0.00 | 69 | 1006.4 |
| 20260507000559 | 59 | 221 | 3.0 | 4.0 | 0.00 | 0.00 | 0.00 | 68 | 1006.2 |
| 20260507000059 | 61 | 221 | 0.0 | 0.0 | 0.00 | 0.00 | 0.00 | 67 | 1006.3 |
| 20260506235559 | 61 | 221 | 0.0 | 0.0 | 0.00 | 0.00 | 0.00 | 67 | 1006.4 |
| 20260506235059 | 61 | 221 | 0.0 | 2.0 | 0.00 | 0.00 | 0.00 | 68 | 1006.3 |
| 20260506234559 | 61 | 221 | 1.0 | 4.0 | 0.00 | 0.00 | 0.00 | 67 | 1006.3 |
| 20260506234059 | 61 | 220 | 3.0 | 7.0 | 0.00 | 0.00 | 0.00 | 66 | 1006.3 |
| 20260506233559 | 61 | 224 | 2.0 | 5.0 | 0.00 | 0.00 | 0.00 | 67 | 1006.4 |
| 20260506233059 | 61 | 215 | 2.0 | 5.0 | 0.00 | 0.00 | 0.00 | 67 | 1006.4 |
| 20260506232559 | 61 | 206 | 2.0 | 5.0 | 0.00 | 0.00 | 0.00 | 67 | 1006.3 |
| 20260506232059 | 61 | 157 | 2.0 | 5.0 | 0.00 | 0.00 | 0.00 | 66 | 1006.4 |
| 20260506231559 | 61 | 155 | 4.0 | 7.0 | 0.00 | 0.00 | 0.00 | 66 | 1006.4 |
| 20260506231059 | 61 | 189 | 6.0 | 7.0 | 0.00 | 0.00 | 0.00 | 67 | 1006.4 |
| 20260506230559 | 61 | 167 | 3.0 | 4.0 | 0.00 | 0.00 | 0.00 | 67 | 1006.5 |
| 20260506230059 | 59 | 160 | 0.0 | 0.0 | 0.00 | 0.00 | 0.00 | 67 | 1006.6 |
| 20260506225559 | 61 | 160 | 0.0 | 0.0 | 0.00 | 0.00 | 0.00 | 67 | 1006.4 |
| 20260506225059 | 61 | 168 | 4.0 | 5.0 | 0.00 | 0.00 | 0.00 | 66 | 1006.3 |
| 20260506224559 | 61 | 151 | 0.0 | 0.0 | 0.00 | 0.00 | 0.00 | 65 | 1006.5 |
| 20260506224059 | 61 | 151 | 2.0 | 4.0 | 0.00 | 0.00 | 0.00 | 64 | 1006.1 |
| 20260506223559 | 61 | 151 | 4.0 | 5.0 | 0.00 | 0.00 | 0.00 | 64 | 1006.3 |
| 20260506223059 | 61 | 110 | 0.0 | 2.0 | 0.00 | 0.00 | 0.00 | 65 | 1006.2 |
| 20260506222559 | 61 | 110 | 1.0 | 2.0 | 0.00 | 0.00 | 0.00 | 66 | 1006.3 |
| 20260506222059 | 59 | 110 | 0.0 | 2.0 | 0.00 | 0.00 | 0.00 | 68 | 1006.4 |
| 20260506221559 | 61 | 110 | 4.0 | 5.0 | 0.00 | 0.00 | 0.00 | 67 | 1006.3 |
| 20260506221059 | 61 | 130 | 1.0 | 2.0 | 0.00 | 0.00 | 0.00 | 67 | 1006.2 |
| 20260506220559 | 61 | 139 | 0.0 | 0.0 | 0.00 | 0.00 | 0.00 | 65 | 1006.3 |
| 20260506220059 | 61 | 139 | 0.0 | 0.0 | 0.00 | 0.00 | 0.00 | 65 | 1006.3 |
| 20260506215559 | 61 | 139 | 1.0 | 4.0 | 0.00 | 0.00 | 0.00 | 65 | 1006.3 |
| 20260506215059 | 61 | 139 | 2.0 | 5.0 | 0.00 | 0.00 | 0.00 | 65 | 1006.2 |
| 20260506214559 | 61 | 108 | 3.0 | 4.0 | 0.00 | 0.00 | 0.00 | 64 | 1006.3 |
| 20260506214059 | 63 | 108 | 2.0 | 4.0 | 0.00 | 0.00 | 0.00 | 64 | 1006.4 |
| 20260506213559 | 63 | 108 | 2.0 | 4.0 | 0.00 | 0.00 | 0.00 | 63 | 1006.4 |
| 20260506213059 | 63 | 107 | 3.0 | 4.0 | 0.00 | 0.00 | 0.00 | 63 | 1006.2 |
| 20260506212559 | 63 | 114 | 0.0 | 2.0 | 0.00 | 0.00 | 0.00 | 63 | 1006.1 |
| 20260506212059 | 63 | 114 | 2.0 | 4.0 | 0.00 | 0.00 | 0.00 | 63 | 1006.5 |
| 20260506211559 | 63 | 114 | 0.0 | 2.0 | 0.00 | 0.00 | 0.00 | 63 | 1006.3 |
| 20260506211059 | 63 | 114 | 1.0 | 4.0 | 0.00 | 0.00 | 0.00 | 63 | 1006.2 |
| 20260506210559 | 63 | 114 | 1.0 | 5.0 | 0.00 | 0.00 | 0.00 | 62 | 1006.1 |
| 20260506210059 | 63 | 115 | 4.0 | 7.0 | 0.00 | 0.00 | 0.00 | 62 | 1006.0 |
| 20260506205559 | 63 | 95 | 5.0 | 5.0 | 0.00 | 0.00 | 0.00 | 63 | 1006.1 |
| 20260506205059 | 63 | 94 | 2.0 | 4.0 | 0.00 | 0.00 | 0.00 | 63 | 1006.1 |
| 20260506204559 | 63 | 94 | 4.0 | 5.0 | 0.00 | 0.00 | 0.00 | 63 | 1006.0 |
| 20260506204059 | 63 | 94 | 5.0 | 5.0 | 0.00 | 0.00 | 0.00 | 63 | 1006.2 |
| 20260506203559 | 63 | 83 | 4.0 | 4.0 | 0.00 | 0.00 | 0.00 | 64 | 1006.3 |
| 20260506203059 | 63 | 83 | 3.0 | 4.0 | 0.00 | 0.00 | 0.00 | 64 | 1006.1 |
| 20260506202559 | 63 | 83 | 4.0 | 5.0 | 0.00 | 0.00 | 0.00 | 63 | 1006.0 |
| 20260506202059 | 63 | 135 | 4.0 | 5.0 | 0.00 | 0.00 | 0.00 | 63 | 1006.1 |
| 20260506201559 | 63 | 135 | 1.0 | 4.0 | 0.00 | 0.00 | 0.00 | 63 | 1006.2 |
| 20260506201059 | 63 | 135 | 3.0 | 4.0 | 0.00 | 0.00 | 0.00 | 63 | 1006.1 |
| 20260506200559 | 63 | 135 | 2.0 | 2.0 | 0.00 | 0.00 | 0.00 | 62 | 1006.0 |
| 20260506200059 | 63 | 135 | 2.0 | 4.0 | 0.00 | 0.00 | 0.00 | 61 | 1006.1 |
| 20260506195559 | 63 | 136 | 4.0 | 5.0 | 0.00 | 0.00 | 0.00 | 60 | 1006.1 |
| 20260506195059 | 63 | 228 | 0.0 | 0.0 | 0.00 | 0.00 | 0.00 | 59 | 1005.7 |
| 20260506194559 | 64 | 228 | 0.0 | 0.0 | 0.00 | 0.00 | 0.00 | 59 | 1006.1 |
| 20260506194059 | 64 | 228 | 1.0 | 2.0 | 0.00 | 0.00 | 0.00 | 59 | 1005.7 |
| 20260506193559 | 64 | 228 | 0.0 | 0.0 | 0.00 | 0.00 | 0.00 | 58 | 1005.8 |
| 20260506193059 | 64 | 228 | 1.0 | 2.0 | 0.00 | 0.00 | 0.00 | 57 | 1005.8 |
| 20260506192559 | 64 | 228 | 1.0 | 2.0 | 0.00 | 0.00 | 0.00 | 57 | 1005.7 |
| 20260506192059 | 64 | 228 | 2.0 | 2.0 | 0.00 | 0.00 | 0.00 | 56 | 1005.9 |
| 20260506191559 | 64 | 228 | 0.0 | 2.0 | 0.00 | 0.00 | 0.00 | 56 | 1005.8 |
| 20260506191059 | 64 | 228 | 1.0 | 2.0 | 0.00 | 0.00 | 0.00 | 55 | 1005.8 |
| 20260506190559 | 64 | 228 | 0.0 | 0.0 | 0.00 | 0.00 | 0.00 | 54 | 1005.8 |
| 20260506190059 | 64 | 240 | 0.0 | 0.0 | 0.00 | 0.00 | 0.00 | 54 | 1005.6 |
| 20260506185559 | 64 | 240 | 0.0 | 0.0 | 0.00 | 0.00 | 0.00 | 54 | 1005.6 |
| 20260506185059 | 64 | 244 | 2.0 | 2.0 | 0.00 | 0.00 | 0.00 | 53 | 1005.6 |
| 20260506184559 | 64 | 240 | 0.0 | 0.0 | 0.00 | 0.00 | 0.00 | 53 | 1005.3 |
| 20260506184059 | 66 | 244 | 0.0 | 2.0 | 0.00 | 0.00 | 0.00 | 52 | 1005.3 |
| 20260506183559 | 66 | 246 | 0.0 | 2.0 | 0.00 | 0.00 | 0.00 | 52 | 1005.3 |
| 20260506183059 | 66 | 246 | 0.0 | 0.0 | 0.00 | 0.00 | 0.00 | 51 | 1005.3 |
| 20260506182559 | 66 | 247 | 0.0 | 0.0 | 0.00 | 0.00 | 0.00 | 51 | 1005.2 |
| 20260506182059 | 66 | 247 | 1.0 | 2.0 | 0.00 | 0.00 | 0.00 | 51 | 1005.1 |
| 20260506181559 | 66 | 246 | 1.0 | 2.0 | 0.00 | 0.00 | 0.00 | 51 | 1005.3 |
| 20260506181059 | 66 | 247 | 2.0 | 2.0 | 0.00 | 0.00 | 0.00 | 52 | 1004.8 |
| 20260506180559 | 68 | 247 | 0.0 | 2.0 | 0.00 | 0.00 | 0.00 | 52 | 1005.0 |
| 20260506180059 | 68 | 240 | 1.0 | 2.0 | 0.00 | 0.00 | 0.00 | 52 | 1004.8 |
| 20260506175559 | 68 | 247 | 1.0 | 4.0 | 0.00 | 0.00 | 0.00 | 51 | 1004.6 |
| 20260506175059 | 68 | 247 | 0.0 | 0.0 | 0.00 | 0.00 | 0.00 | 50 | 1004.7 |
| 20260506174559 | 70 | 247 | 0.0 | 0.0 | 0.00 | 0.00 | 0.00 | 47 | 1004.8 |
| 20260506174059 | 68 | 247 | 0.0 | 0.0 | 0.00 | 0.00 | 0.00 | 46 | 1004.8 |
| 20260506173559 | 68 | 247 | 0.0 | 0.0 | 0.00 | 0.00 | 0.00 | 48 | 1005.0 |
| 20260506173059 | 68 | 247 | 0.0 | 0.0 | 0.00 | 0.00 | 0.00 | 46 | 1005.0 |
| 20260506172559 | 68 | 247 | 0.0 | 0.0 | 0.00 | 0.00 | 0.00 | 48 | 1005.1 |
| 20260506172059 | 68 | 247 | 0.0 | 0.0 | 0.00 | 0.00 | 0.00 | 47 | 1004.9 |
| 20260506171559 | 68 | 247 | 0.0 | 0.0 | 0.00 | 0.00 | 0.00 | 47 | 1005.0 |
| 20260506171059 | 68 | 247 | 0.0 | 0.0 | 0.00 | 0.00 | 0.00 | 47 | 1004.9 |
| 20260506170559 | 70 | 246 | 0.0 | 0.0 | 0.00 | 0.00 | 0.00 | 46 | 1005.0 |
| 20260506170059 | 70 | 247 | 0.0 | 2.0 | 0.00 | 0.00 | 0.00 | 45 | 1004.7 |
| 20260506165559 | 70 | 247 | 2.0 | 4.0 | 0.00 | 0.00 | 0.00 | 45 | 1004.7 |
| 20260506165059 | 70 | 248 | 1.0 | 5.0 | 0.00 | 0.00 | 0.00 | 44 | 1004.7 |
| 20260506164559 | 70 | 243 | 2.0 | 7.0 | 0.00 | 0.00 | 0.00 | 44 | 1004.8 |
| 20260506164059 | 70 | 236 | 6.0 | 11.0 | 0.00 | 0.00 | 0.00 | 43 | 1004.8 |
| 20260506163559 | 70 | 246 | 9.0 | 9.0 | 0.00 | 0.00 | 0.00 | 44 | 1004.7 |
| 20260506163059 | 72 | 272 | 9.0 | 13.0 | 0.00 | 0.00 | 0.00 | 44 | 1004.6 |
| 20260506162559 | 72 | 264 | 5.0 | 9.0 | 0.00 | 0.00 | 0.00 | 44 | 1004.6 |
| 20260506162059 | 72 | 244 | 6.0 | 13.0 | 0.00 | 0.00 | 0.00 | 44 | 1004.6 |
| 20260506161559 | 72 | 274 | 5.0 | 11.0 | 0.00 | 0.00 | 0.00 | 46 | 1004.7 |
| 20260506161059 | 72 | 295 | 8.0 | 15.0 | 0.00 | 0.00 | 0.00 | 46 | 1004.6 |
| 20260506160559 | 73 | 246 | 10.0 | 13.0 | 0.00 | 0.00 | 0.00 | 45 | 1004.7 |
| 20260506160059 | 73 | 268 | 11.0 | 15.0 | 0.00 | 0.00 | 0.00 | 43 | 1004.6 |
| 20260506155559 | 73 | 234 | 4.0 | 11.0 | 0.00 | 0.00 | 0.00 | 43 | 1004.4 |
| 20260506155059 | 73 | 251 | 9.0 | 11.0 | 0.00 | 0.00 | 0.00 | 43 | 1004.5 |
| 20260506154559 | 73 | 253 | 6.0 | 15.0 | 0.00 | 0.00 | 0.00 | 43 | 1004.6 |
| 20260506154059 | 73 | 230 | 4.0 | 9.0 | 0.00 | 0.00 | 0.00 | 43 | 1004.6 |
| 20260506153559 | 73 | 237 | 11.0 | 15.0 | 0.00 | 0.00 | 0.00 | 41 | 1004.7 |
| 20260506153059 | 73 | 244 | 8.0 | 13.0 | 0.00 | 0.00 | 0.00 | 41 | 1004.5 |
| 20260506152559 | 75 | 209 | 10.0 | 15.0 | 0.00 | 0.00 | 0.00 | 42 | 1004.5 |
| 20260506152059 | 75 | 189 | 12.0 | 15.0 | 0.00 | 0.00 | 0.00 | 40 | 1004.4 |
| 20260506151559 | 75 | 180 | 9.0 | 11.0 | 0.00 | 0.00 | 0.00 | 39 | 1004.3 |
| 20260506151059 | 75 | 294 | 4.0 | 11.0 | 0.00 | 0.00 | 0.00 | 38 | 1004.5 |
| 20260506150559 | 75 | 244 | 9.0 | 17.0 | 0.00 | 0.00 | 0.00 | 41 | 1004.5 |
| 20260506150059 | 75 | 250 | 11.0 | 20.0 | 0.00 | 0.00 | 0.00 | 39 | 1004.4 |
| 20260506145559 | 75 | 232 | 6.0 | 9.0 | 0.00 | 0.00 | 0.00 | 39 | 1004.4 |
| 20260506145059 | 75 | 179 | 6.0 | 11.0 | 0.00 | 0.00 | 0.00 | 43 | 1004.6 |
| 20260506144559 | 75 | 233 | 3.0 | 11.0 | 0.00 | 0.00 | 0.00 | 43 | 1004.8 |
| 20260506144059 | 75 | 239 | 8.0 | 11.0 | 0.00 | 0.00 | 0.00 | 41 | 1004.9 |
| 20260506143559 | 75 | 260 | 10.0 | 15.0 | 0.00 | 0.00 | 0.00 | 40 | 1005.0 |
| 20260506143059 | 75 | 257 | 15.0 | 20.0 | 0.00 | 0.00 | 0.00 | 40 | 1004.9 |
| 20260506142559 | 75 | 243 | 22.0 | 30.0 | 0.00 | 0.00 | 0.00 | 40 | 1004.9 |
| 20260506142059 | 75 | 204 | 11.0 | 20.0 | 0.00 | 0.00 | 0.00 | 39 | 1004.9 |
| 20260506141559 | 75 | 240 | 14.0 | 24.0 | 0.00 | 0.00 | 0.00 | 40 | 1004.9 |
| 20260506141059 | 75 | 242 | 14.0 | 26.0 | 0.00 | 0.00 | 0.00 | 38 | 1004.9 |
| 20260506140559 | 75 | 218 | 8.0 | 22.0 | 0.00 | 0.00 | 0.00 | 40 | 1004.9 |
| 20260506140059 | 75 | 246 | 21.0 | 26.0 | 0.00 | 0.00 | 0.00 | 38 | 1004.9 |
| 20260506135559 | 75 | 218 | 5.0 | 17.0 | 0.00 | 0.00 | 0.00 | 41 | 1004.8 |
| 20260506135059 | 75 | 243 | 12.0 | 17.0 | 0.00 | 0.00 | 0.00 | 40 | 1004.7 |
| 20260506134559 | 75 | 229 | 12.0 | 18.0 | 0.00 | 0.00 | 0.00 | 41 | 1004.9 |
| 20260506134059 | 75 | 209 | 8.0 | 18.0 | 0.00 | 0.00 | 0.00 | 43 | 1004.9 |
| 20260506133559 | 73 | 194 | 11.0 | 17.0 | 0.00 | 0.00 | 0.00 | 44 | 1005.1 |
| 20260506133059 | 75 | 273 | 14.0 | 17.0 | 0.00 | 0.00 | 0.00 | 42 | 1005.0 |
| 20260506132559 | 75 | 252 | 11.0 | 18.0 | 0.00 | 0.00 | 0.00 | 42 | 1004.7 |
| 20260506132059 | 75 | 252 | 17.0 | 20.0 | 0.00 | 0.00 | 0.00 | 42 | 1005.1 |
| 20260506131559 | 75 | 206 | 6.0 | 13.0 | 0.00 | 0.00 | 0.00 | 42 | 1005.1 |
| 20260506131059 | 73 | 246 | 15.0 | 26.0 | 0.00 | 0.00 | 0.00 | 44 | 1005.3 |
| 20260506130559 | 73 | 268 | 6.0 | 17.0 | 0.00 | 0.00 | 0.00 | 44 | 1005.4 |
| 20260506130059 | 73 | 265 | 11.0 | 22.0 | 0.00 | 0.00 | 0.00 | 44 | 1005.4 |
| 20260506125559 | 73 | 184 | 9.0 | 18.0 | 0.00 | 0.00 | 0.00 | 43 | 1005.6 |
| 20260506125059 | 75 | 245 | 12.0 | 20.0 | 0.00 | 0.00 | 0.00 | 42 | 1005.2 |